TAP89WT LPPT-LPMA

Flight info

Callsign TAP89WT
Flight time 1h 39m
Altitude 39000
Route ULVOT DCT GALPA DCT RAKUN
Aircraft A332/H-SDE3GHIJ2J3J5M1RVWXY/LB2D1

Departure

Time 2026-05-01 07:41
Airport Lisbon Humberto Delgado Airport (LPPT)

Arrival

Time 2026-05-01 09:20
Airport Cristiano Ronaldo International Airport (LPMA)
Time Latitude Longitude Altitude Speed Heading
2026-05-01 07:23 38.76883 -9.13595 350 ft 0 kts 258°
2026-05-01 07:31 38.76884 -9.13588 359 ft 4 kts 265°
2026-05-01 07:31 38.76861 -9.13523 358 ft 4 kts 261°
2026-05-01 07:32 38.76887 -9.13483 359 ft 4 kts 162°
2026-05-01 07:32 38.76911 -9.13495 359 ft 3 kts 166°
2026-05-01 07:33 38.76915 -9.13496 359 ft 0 kts 168°
2026-05-01 07:36 38.76907 -9.13494 359 ft 2 kts 168°
2026-05-01 07:36 38.76886 -9.13488 359 ft 4 kts 168°
2026-05-01 07:36 38.76854 -9.13479 359 ft 6 kts 168°
2026-05-01 07:36 38.76805 -9.13466 351 ft 9 kts 168°
2026-05-01 07:37 38.76664 -9.13457 359 ft 10 kts 219°
2026-05-01 07:37 38.76647 -9.13529 355 ft 9 kts 259°
2026-05-01 07:37 38.76633 -9.13614 351 ft 11 kts 258°
2026-05-01 07:38 38.76616 -9.13722 357 ft 14 kts 258°
2026-05-01 07:38 38.76594 -9.13853 353 ft 17 kts 258°
2026-05-01 07:38 38.76501 -9.14106 355 ft 15 kts 241°
2026-05-01 07:39 38.76504 -9.14207 353 ft 12 kts 297°
2026-05-01 07:39 38.76544 -9.14320 336 ft 16 kts 292°
2026-05-01 07:39 38.76681 -9.14368 335 ft 16 kts 22°
2026-05-01 07:40 38.76965 -9.14219 360 ft 72 kts 23°
2026-05-01 07:40 38.77581 -9.13887 370 ft 120 kts 22°
2026-05-01 07:40 38.78488 -9.13401 373 ft 162 kts 22°
2026-05-01 07:40 38.79573 -9.12805 764 ft 170 kts 24°
2026-05-01 07:41 38.80631 -9.12130 1419 ft 170 kts 29°
2026-05-01 07:41 38.81653 -9.11359 2018 ft 173 kts 30°
2026-05-01 07:41 38.83984 -9.09604 2473 ft 220 kts 29°
2026-05-01 07:42 38.85394 -9.08568 2673 ft 246 kts 29°
2026-05-01 07:42 38.86929 -9.07449 3116 ft 259 kts 29°
2026-05-01 07:42 38.88508 -9.06287 3790 ft 264 kts 33°
2026-05-01 07:42 38.89774 -9.04592 4442 ft 268 kts 65°
2026-05-01 07:43 38.90118 -9.02273 5165 ft 268 kts 94°
2026-05-01 07:43 38.89965 -8.99877 5905 ft 271 kts 97°
2026-05-01 07:43 38.89698 -8.94969 7331 ft 280 kts 94°
2026-05-01 07:44 38.89606 -8.89915 8801 ft 288 kts 92°
2026-05-01 07:44 38.89576 -8.84697 10248 ft 296 kts 92°
2026-05-01 07:45 38.89568 -8.81985 10608 ft 313 kts 92°
2026-05-01 07:45 38.89560 -8.79114 10855 ft 332 kts 92°
2026-05-01 07:45 38.89553 -8.76070 11101 ft 351 kts 92°
2026-05-01 07:45 38.89547 -8.72885 11535 ft 361 kts 92°
2026-05-01 07:46 38.89541 -8.69638 12102 ft 366 kts 92°
2026-05-01 07:46 38.89424 -8.66357 12709 ft 369 kts 101°
2026-05-01 07:46 38.87083 -8.60688 13927 ft 364 kts 142°
2026-05-01 07:47 38.84928 -8.59033 14479 ft 361 kts 163°
2026-05-01 07:47 38.82483 -8.58424 15027 ft 359 kts 179°
2026-05-01 07:47 38.79981 -8.58365 15583 ft 361 kts 182°
2026-05-01 07:47 38.77458 -8.58394 16121 ft 364 kts 183°
2026-05-01 07:48 38.72421 -8.58795 17210 ft 366 kts 196°
2026-05-01 07:48 38.70088 -8.60037 17761 ft 364 kts 214°
2026-05-01 07:48 38.68183 -8.62162 18302 ft 365 kts 231°
2026-05-01 07:49 38.66757 -8.64847 18813 ft 366 kts 239°
2026-05-01 07:49 38.64179 -8.70530 19737 ft 371 kts 240°
2026-05-01 07:49 38.62882 -8.73389 20236 ft 372 kts 240°
2026-05-01 07:50 38.61575 -8.76250 20726 ft 373 kts 240°
2026-05-01 07:50 38.58929 -8.82001 21606 ft 378 kts 240°
2026-05-01 07:50 38.57588 -8.84905 22039 ft 380 kts 240°
2026-05-01 07:51 38.56240 -8.87819 22462 ft 382 kts 240°
2026-05-01 07:51 38.54882 -8.90750 22878 ft 384 kts 240°
2026-05-01 07:51 38.53534 -8.93658 23276 ft 386 kts 240°
2026-05-01 07:52 38.50773 -8.99602 24047 ft 391 kts 240°
2026-05-01 07:52 38.49382 -9.02594 24395 ft 392 kts 240°
2026-05-01 07:52 38.47986 -9.05591 24741 ft 394 kts 240°
2026-05-01 07:53 38.45170 -9.11633 25460 ft 396 kts 240°
2026-05-01 07:53 38.43749 -9.14648 25813 ft 397 kts 239°
2026-05-01 07:53 38.42136 -9.17525 26147 ft 401 kts 232°
2026-05-01 07:53 38.40171 -9.20078 26475 ft 406 kts 224°
2026-05-01 07:54 38.35700 -9.24547 27098 ft 411 kts 221°
2026-05-01 07:55 38.28830 -9.31193 28017 ft 416 kts 221°
2026-05-01 07:55 38.24215 -9.35670 28616 ft 419 kts 222°
2026-05-01 07:56 38.17225 -9.42447 29471 ft 424 kts 222°
2026-05-01 07:56 38.12517 -9.47004 30045 ft 427 kts 223°
2026-05-01 07:57 38.10153 -9.49287 30387 ft 426 kts 223°
2026-05-01 07:57 38.05452 -9.53826 30860 ft 428 kts 223°
2026-05-01 07:58 38.00694 -9.58416 31342 ft 430 kts 224°
2026-05-01 07:58 37.96100 -9.63222 31985 ft 425 kts 226°
2026-05-01 07:59 37.91602 -9.68032 32750 ft 420 kts 226°
2026-05-01 07:59 37.87148 -9.72782 33422 ft 416 kts 226°
2026-05-01 08:00 37.78382 -9.82101 34582 ft 410 kts 226°
2026-05-01 08:01 37.71875 -9.88995 35402 ft 404 kts 226°
2026-05-01 08:01 37.69719 -9.91278 35551 ft 405 kts 226°
2026-05-01 08:01 37.67557 -9.93564 35741 ft 405 kts 226°
2026-05-01 08:02 37.63272 -9.98162 36116 ft 402 kts 229°
2026-05-01 08:02 37.61348 -10.00704 36288 ft 398 kts 233°
2026-05-01 08:03 37.57849 -10.06039 36649 ft 396 kts 236°
2026-05-01 08:03 37.56140 -10.08760 36832 ft 396 kts 236°
2026-05-01 08:03 37.52729 -10.14211 37172 ft 396 kts 236°
2026-05-01 08:04 37.49300 -10.19636 37478 ft 395 kts 236°
2026-05-01 08:04 37.45862 -10.25030 37863 ft 393 kts 235°
2026-05-01 08:05 37.42434 -10.30389 38152 ft 393 kts 235°
2026-05-01 08:05 37.40721 -10.33064 38320 ft 393 kts 235°
2026-05-01 08:05 37.39028 -10.35706 38451 ft 392 kts 235°
2026-05-01 08:06 37.35604 -10.41046 38745 ft 391 kts 235°
2026-05-01 08:06 37.32187 -10.46365 38966 ft 391 kts 235°
2026-05-01 08:07 37.28757 -10.51699 39110 ft 393 kts 235°
2026-05-01 08:08 37.23577 -10.59735 39155 ft 395 kts 235°
2026-05-01 08:09 37.16695 -10.70378 39173 ft 393 kts 235°
2026-05-01 08:09 37.13250 -10.75694 39174 ft 393 kts 235°
2026-05-01 08:10 37.06343 -10.86328 39174 ft 393 kts 235°
2026-05-01 08:11 36.99436 -10.96928 39173 ft 392 kts 234°
2026-05-01 08:12 36.94292 -11.04798 39165 ft 390 kts 234°
2026-05-01 08:13 36.89141 -11.12662 39175 ft 390 kts 234°
2026-05-01 08:13 36.83964 -11.20549 39169 ft 390 kts 234°
2026-05-01 08:14 36.80548 -11.25742 39171 ft 390 kts 234°
2026-05-01 08:14 36.77106 -11.30967 39183 ft 389 kts 234°
2026-05-01 08:15 36.71945 -11.38784 39177 ft 388 kts 234°
2026-05-01 08:16 36.68515 -11.43969 39178 ft 388 kts 234°
2026-05-01 08:16 36.65078 -11.49157 39173 ft 388 kts 234°
2026-05-01 08:17 36.61637 -11.54344 39173 ft 389 kts 234°
2026-05-01 08:17 36.58214 -11.59497 39173 ft 389 kts 234°
2026-05-01 08:18 36.54767 -11.64675 39174 ft 389 kts 234°
2026-05-01 08:19 36.48422 -11.74187 39171 ft 388 kts 234°
2026-05-01 08:19 36.44989 -11.79324 39172 ft 388 kts 234°
2026-05-01 08:20 36.41529 -11.84493 39176 ft 388 kts 234°
2026-05-01 08:20 36.38067 -11.89656 39176 ft 389 kts 234°
2026-05-01 08:21 36.34595 -11.94827 39172 ft 390 kts 234°
2026-05-01 08:21 36.31140 -11.99964 39173 ft 390 kts 234°
2026-05-01 08:22 36.27652 -12.05142 39171 ft 390 kts 234°
2026-05-01 08:22 36.24173 -12.10298 39173 ft 390 kts 234°
2026-05-01 08:23 36.20693 -12.15449 39173 ft 390 kts 234°
2026-05-01 08:23 36.17210 -12.20597 39172 ft 390 kts 234°
2026-05-01 08:24 36.13750 -12.25702 39173 ft 390 kts 234°
2026-05-01 08:24 36.10262 -12.30842 39162 ft 390 kts 234°
2026-05-01 08:25 36.06764 -12.35988 39170 ft 391 kts 234°
2026-05-01 08:25 36.03258 -12.41139 39170 ft 391 kts 233°
2026-05-01 08:26 35.99753 -12.46278 39172 ft 391 kts 233°
2026-05-01 08:26 35.96244 -12.51417 39170 ft 390 kts 233°
2026-05-01 08:27 35.92761 -12.56510 39168 ft 391 kts 233°
2026-05-01 08:27 35.89255 -12.61629 39170 ft 390 kts 233°
2026-05-01 08:28 35.85750 -12.66739 39170 ft 390 kts 233°
2026-05-01 08:28 35.82239 -12.71850 39149 ft 390 kts 233°
2026-05-01 08:29 35.78721 -12.76964 39170 ft 391 kts 233°
2026-05-01 08:29 35.75193 -12.82085 39167 ft 391 kts 233°
2026-05-01 08:30 35.71667 -12.87193 39168 ft 391 kts 233°
2026-05-01 08:30 35.68161 -12.92266 39165 ft 391 kts 233°
2026-05-01 08:31 35.64630 -12.97368 39167 ft 391 kts 233°
2026-05-01 08:31 35.61102 -13.02458 39165 ft 391 kts 233°
2026-05-01 08:32 35.57566 -13.07551 39162 ft 391 kts 233°
2026-05-01 08:32 35.54028 -13.12640 39162 ft 391 kts 233°
2026-05-01 08:33 35.50488 -13.17725 39159 ft 392 kts 233°
2026-05-01 08:33 35.46955 -13.22793 39162 ft 393 kts 233°
2026-05-01 08:34 35.43393 -13.27893 39162 ft 393 kts 232°
2026-05-01 08:34 35.39832 -13.32984 39162 ft 393 kts 232°
2026-05-01 08:35 35.36261 -13.38081 39160 ft 393 kts 232°
2026-05-01 08:35 35.32698 -13.43161 39159 ft 393 kts 232°
2026-05-01 08:36 35.29125 -13.48248 39157 ft 393 kts 232°
2026-05-01 08:36 35.25555 -13.53322 39157 ft 393 kts 232°
2026-05-01 08:37 35.22000 -13.58368 39156 ft 394 kts 232°
2026-05-01 08:37 35.18421 -13.63440 39157 ft 394 kts 232°
2026-05-01 08:38 35.14840 -13.68508 39158 ft 394 kts 232°
2026-05-01 08:38 35.11259 -13.73568 39157 ft 394 kts 232°
2026-05-01 08:39 35.07674 -13.78627 39154 ft 394 kts 232°
2026-05-01 08:39 35.04109 -13.83649 39154 ft 394 kts 232°
2026-05-01 08:40 34.98728 -13.91217 39154 ft 393 kts 232°
2026-05-01 08:40 34.95141 -13.96252 39154 ft 393 kts 232°
2026-05-01 08:41 34.91544 -14.01295 39148 ft 394 kts 232°
2026-05-01 08:41 34.87939 -14.06342 39151 ft 395 kts 232°
2026-05-01 08:42 34.84326 -14.11392 39152 ft 395 kts 232°
2026-05-01 08:42 34.80704 -14.16446 39152 ft 395 kts 232°
2026-05-01 08:43 34.77110 -14.21455 39148 ft 395 kts 232°
2026-05-01 08:43 34.73489 -14.26494 39152 ft 395 kts 232°
2026-05-01 08:44 34.69875 -14.31516 39153 ft 394 kts 232°
2026-05-01 08:44 34.66262 -14.36530 39143 ft 394 kts 232°
2026-05-01 08:45 34.62667 -14.41511 38889 ft 394 kts 232°
2026-05-01 08:45 34.60861 -14.44010 38622 ft 393 kts 232°
2026-05-01 08:45 34.59061 -14.46500 38368 ft 393 kts 232°
2026-05-01 08:46 34.57253 -14.48999 38086 ft 394 kts 232°
2026-05-01 08:46 34.55444 -14.51499 37799 ft 395 kts 232°
2026-05-01 08:46 34.53627 -14.54008 37527 ft 396 kts 232°
2026-05-01 08:46 34.51807 -14.56518 37264 ft 397 kts 232°
2026-05-01 08:47 34.49979 -14.59038 36994 ft 398 kts 232°
2026-05-01 08:47 34.48149 -14.61558 36723 ft 399 kts 232°
2026-05-01 08:47 34.46309 -14.64091 36474 ft 400 kts 232°
2026-05-01 08:47 34.44466 -14.66625 36214 ft 401 kts 232°
2026-05-01 08:48 34.42620 -14.69162 35972 ft 402 kts 232°
2026-05-01 08:48 34.40790 -14.71675 35723 ft 403 kts 232°
2026-05-01 08:48 34.38881 -14.74175 35482 ft 405 kts 230°
2026-05-01 08:48 34.36912 -14.76627 35230 ft 406 kts 230°
2026-05-01 08:49 34.34929 -14.79074 34985 ft 407 kts 230°
2026-05-01 08:49 34.32937 -14.81529 34728 ft 409 kts 229°
2026-05-01 08:49 34.30945 -14.83985 34491 ft 410 kts 229°
2026-05-01 08:49 34.28942 -14.86455 34255 ft 411 kts 229°
2026-05-01 08:50 34.26933 -14.88930 33995 ft 412 kts 229°
2026-05-01 08:50 34.24922 -14.91409 33735 ft 413 kts 229°
2026-05-01 08:50 34.22903 -14.93894 33465 ft 415 kts 229°
2026-05-01 08:50 34.20879 -14.96385 33188 ft 416 kts 229°
2026-05-01 08:51 34.18874 -14.98851 32935 ft 417 kts 229°
2026-05-01 08:51 34.16837 -15.01354 32674 ft 418 kts 229°
2026-05-01 08:51 34.14784 -15.03874 32426 ft 419 kts 229°
2026-05-01 08:51 34.12730 -15.06394 32166 ft 421 kts 229°
2026-05-01 08:52 34.10674 -15.08915 31921 ft 422 kts 229°
2026-05-01 08:52 34.08612 -15.11442 31663 ft 423 kts 229°
2026-05-01 08:52 34.06544 -15.13973 31412 ft 424 kts 229°
2026-05-01 08:52 34.04475 -15.16505 31170 ft 423 kts 229°
2026-05-01 08:53 34.02435 -15.18998 30919 ft 422 kts 229°
2026-05-01 08:53 34.00373 -15.21515 30676 ft 421 kts 229°
2026-05-01 08:53 33.98314 -15.24029 30429 ft 418 kts 229°
2026-05-01 08:53 33.96287 -15.26499 30042 ft 413 kts 229°
2026-05-01 08:54 33.94275 -15.28951 29526 ft 409 kts 229°
2026-05-01 08:54 33.92281 -15.31380 29021 ft 405 kts 229°
2026-05-01 08:54 33.90305 -15.33785 28523 ft 402 kts 229°
2026-05-01 08:54 33.88347 -15.36167 28041 ft 398 kts 229°
2026-05-01 08:55 33.86407 -15.38524 27553 ft 395 kts 228°
2026-05-01 08:55 33.84482 -15.40863 27068 ft 392 kts 228°
2026-05-01 08:55 33.82567 -15.43189 26583 ft 389 kts 228°
2026-05-01 08:55 33.80668 -15.45492 26089 ft 387 kts 228°
2026-05-01 08:56 33.78778 -15.47784 25615 ft 385 kts 228°
2026-05-01 08:56 33.76898 -15.50061 25121 ft 383 kts 228°
2026-05-01 08:56 33.75050 -15.52298 24648 ft 381 kts 228°
2026-05-01 08:56 33.73185 -15.54556 24147 ft 380 kts 228°
2026-05-01 08:57 33.71324 -15.56807 23670 ft 378 kts 228°
2026-05-01 08:57 33.69475 -15.59040 23123 ft 376 kts 228°
2026-05-01 08:57 33.67636 -15.61261 22642 ft 373 kts 228°
2026-05-01 08:57 33.65811 -15.63463 22176 ft 370 kts 228°
2026-05-01 08:58 33.64001 -15.65645 21698 ft 367 kts 228°
2026-05-01 08:58 33.62203 -15.67812 21226 ft 365 kts 228°
2026-05-01 08:58 33.60415 -15.69967 20757 ft 362 kts 228°
2026-05-01 08:58 33.58643 -15.72099 20300 ft 360 kts 228°
2026-05-01 08:59 33.56902 -15.74194 19830 ft 358 kts 227°
2026-05-01 08:59 33.55147 -15.76303 19390 ft 355 kts 227°
2026-05-01 08:59 33.53406 -15.78396 18913 ft 353 kts 227°
2026-05-01 08:59 33.51673 -15.80477 18455 ft 351 kts 227°
2026-05-01 09:00 33.49954 -15.82539 17947 ft 348 kts 227°
2026-05-01 09:00 33.48245 -15.84589 17494 ft 345 kts 227°
2026-05-01 09:00 33.46559 -15.86610 17093 ft 340 kts 227°
2026-05-01 09:00 33.44895 -15.88602 16621 ft 338 kts 227°
2026-05-01 09:01 33.43239 -15.90586 16134 ft 336 kts 227°
2026-05-01 09:01 33.41591 -15.92558 15692 ft 334 kts 227°
2026-05-01 09:01 33.39954 -15.94516 15259 ft 332 kts 228°
2026-05-01 09:01 33.38322 -15.96467 14814 ft 331 kts 228°
2026-05-01 09:02 33.36695 -15.98411 14375 ft 330 kts 228°
2026-05-01 09:02 33.35097 -16.00319 13951 ft 329 kts 228°
2026-05-01 09:02 33.33479 -16.02250 13455 ft 328 kts 227°
2026-05-01 09:02 33.31872 -16.04167 12995 ft 325 kts 227°
2026-05-01 09:03 33.30276 -16.06070 12575 ft 323 kts 227°
2026-05-01 09:03 33.28690 -16.07959 12138 ft 321 kts 227°
2026-05-01 09:03 33.27112 -16.09838 11706 ft 319 kts 227°
2026-05-01 09:03 33.25539 -16.11710 11269 ft 319 kts 227°
2026-05-01 09:04 33.23977 -16.13567 11038 ft 311 kts 227°
2026-05-01 09:04 33.22479 -16.15345 10950 ft 297 kts 227°
2026-05-01 09:04 33.21045 -16.17047 10844 ft 285 kts 227°
2026-05-01 09:04 33.19663 -16.18688 10700 ft 275 kts 227°
2026-05-01 09:05 33.18331 -16.20269 10581 ft 266 kts 227°
2026-05-01 09:05 33.17041 -16.21800 10457 ft 258 kts 227°
2026-05-01 09:05 33.15785 -16.23290 10280 ft 253 kts 227°
2026-05-01 09:05 33.14534 -16.24776 9933 ft 255 kts 226°
2026-05-01 09:06 33.13271 -16.26274 9580 ft 256 kts 226°
2026-05-01 09:06 33.12012 -16.27766 9291 ft 255 kts 226°
2026-05-01 09:06 33.10756 -16.29254 8996 ft 254 kts 226°
2026-05-01 09:06 33.09501 -16.30740 8672 ft 254 kts 226°
2026-05-01 09:07 33.08245 -16.32225 8355 ft 252 kts 226°
2026-05-01 09:07 33.07001 -16.33696 8061 ft 252 kts 226°
2026-05-01 09:07 33.05772 -16.35149 7749 ft 252 kts 226°
2026-05-01 09:07 33.04524 -16.36624 7468 ft 253 kts 226°
2026-05-01 09:08 33.03277 -16.38096 7148 ft 252 kts 225°
2026-05-01 09:08 33.02034 -16.39563 6860 ft 251 kts 225°
2026-05-01 09:08 33.00796 -16.41024 6553 ft 250 kts 225°
2026-05-01 09:08 32.99564 -16.42477 6232 ft 248 kts 225°
2026-05-01 09:09 32.98339 -16.43921 5930 ft 247 kts 225°
2026-05-01 09:09 32.97120 -16.45357 5637 ft 246 kts 225°
2026-05-01 09:09 32.95900 -16.46795 5325 ft 245 kts 225°
2026-05-01 09:09 32.95097 -16.47741 5131 ft 245 kts 225°
2026-05-01 09:10 32.93884 -16.49168 4825 ft 245 kts 225°
2026-05-01 09:10 32.92675 -16.50591 4522 ft 244 kts 225°
2026-05-01 09:10 32.91470 -16.52008 4298 ft 240 kts 225°
2026-05-01 09:10 32.90305 -16.53378 4151 ft 232 kts 225°
2026-05-01 09:11 32.89169 -16.54713 3980 ft 227 kts 225°
2026-05-01 09:11 32.88059 -16.56017 3781 ft 224 kts 225°
2026-05-01 09:11 32.86953 -16.57316 3466 ft 223 kts 225°
2026-05-01 09:11 32.85851 -16.58602 3184 ft 221 kts 224°
2026-05-01 09:12 32.84713 -16.59857 2926 ft 228 kts 223°
2026-05-01 09:12 32.83535 -16.61125 2634 ft 228 kts 222°
2026-05-01 09:12 32.82328 -16.62324 2376 ft 224 kts 217°
2026-05-01 09:12 32.81029 -16.63274 2223 ft 215 kts 208°
2026-05-01 09:13 32.79623 -16.63967 2104 ft 224 kts 201°
2026-05-01 09:13 32.78151 -16.64573 1998 ft 228 kts 200°
2026-05-01 09:13 32.76651 -16.65171 1985 ft 225 kts 200°
2026-05-01 09:13 32.75230 -16.65737 1985 ft 207 kts 200°
2026-05-01 09:14 32.73914 -16.66264 1989 ft 191 kts 200°
2026-05-01 09:14 32.72693 -16.66755 1999 ft 184 kts 201°
2026-05-01 09:14 32.71479 -16.67247 1985 ft 185 kts 200°
2026-05-01 09:14 32.70256 -16.67743 1985 ft 186 kts 200°
2026-05-01 09:15 32.69029 -16.68240 1977 ft 186 kts 200°
2026-05-01 09:15 32.67802 -16.68738 1982 ft 187 kts 201°
2026-05-01 09:15 32.66571 -16.69236 1981 ft 187 kts 200°
2026-05-01 09:15 32.65343 -16.69734 1983 ft 187 kts 201°
2026-05-01 09:16 32.64115 -16.70252 1982 ft 188 kts 205°
2026-05-01 09:16 32.62964 -16.70986 1981 ft 187 kts 217°
2026-05-01 09:16 32.62059 -16.71957 1975 ft 165 kts 231°
2026-05-01 09:17 32.61035 -16.74230 1992 ft 153 kts 256°
2026-05-01 09:17 32.60862 -16.75475 1979 ft 154 kts 266°
2026-05-01 09:17 32.61213 -16.77969 1979 ft 156 kts 292°
2026-05-01 09:18 32.61800 -16.79062 1983 ft 159 kts 308°
2026-05-01 09:18 32.63589 -16.80278 1980 ft 144 kts 344°
2026-05-01 09:19 32.65633 -16.80293 1390 ft 156 kts 355°
2026-05-01 09:19 32.66717 -16.80258 1021 ft 155 kts
2026-05-01 09:19 32.67707 -16.79856 725 ft 148 kts 30°
2026-05-01 09:20 32.69150 -16.78197 177 ft 136 kts 45°
2026-05-01 09:20 32.69946 -16.77261 206 ft 20 kts 45°
2026-05-01 09:21 32.69834 -16.77190 197 ft 10 kts 205°
2026-05-01 09:21 32.69723 -16.77321 176 ft 13 kts 225°
2026-05-01 09:22 32.69644 -16.77418 173 ft 4 kts 226°
2026-05-01 09:25 32.69593 -16.77439 173 ft 6 kts 157°
2026-05-01 09:25 32.69537 -16.77387 173 ft 1 kts 138°